| time (UTC) | temp C | wind direction | speed KPH | gust KPH | rain 1hr cm | rain 24hr cm | rain mn cm | humidity % | barometer mb |
| 20260503223439 | 32 | 315 | 3.2 | 9.7 | 0.00 | 0.00 | 0.00 | 28 | 1014.1 |
| 20260503222934 | 32 | 283 | 6.4 | 16.1 | 0.00 | 0.00 | 0.00 | 29 | 1014.0 |
| 20260503222433 | 33 | 54 | 1.6 | 12.9 | 0.00 | 0.00 | 0.00 | 30 | 1014.1 |
| 20260503221931 | 31 | 184 | 0.0 | 14.5 | 0.00 | 0.00 | 0.00 | 31 | 1013.8 |
| 20260503221429 | 32 | 322 | 11.3 | 11.3 | 0.00 | 0.00 | 0.00 | 30 | 1013.9 |
| 20260503220926 | 32 | 138 | 0.0 | 12.9 | 0.00 | 0.00 | 0.00 | 34 | 1014.0 |
| 20260503220422 | 31 | 319 | 11.3 | 11.3 | 0.00 | 0.00 | 0.00 | 34 | 1013.7 |
| 20260503215919 | 32 | 341 | 3.2 | 14.5 | 0.00 | 0.00 | 0.00 | 32 | 1013.4 |
| 20260503215416 | 32 | 0 | 4.8 | 8.0 | 0.00 | 0.00 | 0.00 | 32 | 1013.6 |
| 20260503214914 | 31 | 334 | 9.7 | 11.3 | 0.00 | 0.00 | 0.00 | 29 | 1013.7 |
| 20260503214411 | 31 | 283 | 3.2 | 11.3 | 0.00 | 0.00 | 0.00 | 31 | 1013.6 |
| 20260503213908 | 32 | 8 | 0.0 | 4.8 | 0.00 | 0.00 | 0.00 | 30 | 1013.9 |
| 20260503213406 | 31 | 225 | 3.2 | 12.9 | 0.00 | 0.00 | 0.00 | 31 | 1014.1 |
| 20260503212902 | 31 | 277 | 4.8 | 8.0 | 0.00 | 0.00 | 0.00 | 30 | 1014.2 |
| 20260503212400 | 31 | 229 | 6.4 | 12.9 | 0.00 | 0.00 | 0.00 | 33 | 1014.3 |
| 20260503211857 | 31 | 244 | 4.8 | 12.9 | 0.00 | 0.00 | 0.00 | 33 | 1014.2 |
| 20260503211354 | 31 | 281 | 4.8 | 8.0 | 0.00 | 0.00 | 0.00 | 35 | 1014.6 |
| 20260503210849 | 31 | 258 | 4.8 | 12.9 | 0.00 | 0.00 | 0.00 | 34 | 1014.7 |
| 20260503210347 | 30 | 253 | 6.4 | 17.7 | 0.00 | 0.00 | 0.00 | 35 | 1014.9 |
| 20260503205841 | 31 | 324 | 4.8 | 12.9 | 0.00 | 0.00 | 0.00 | 37 | 1014.8 |
| 20260503205338 | 30 | 180 | 4.8 | 17.7 | 0.00 | 0.00 | 0.00 | 40 | 1014.9 |
| 20260503204834 | 30 | 242 | 8.0 | 16.1 | 0.00 | 0.00 | 0.00 | 40 | 1015.1 |
| 20260503204332 | 30 | 202 | 8.0 | 14.5 | 0.00 | 0.00 | 0.00 | 39 | 1015.2 |
| 20260503203829 | 30 | 228 | 11.3 | 11.3 | 0.00 | 0.00 | 0.00 | 39 | 1015.4 |
| 20260503203327 | 30 | 249 | 6.4 | 12.9 | 0.00 | 0.00 | 0.00 | 40 | 1015.5 |
| 20260503202824 | 30 | 294 | 1.6 | 17.7 | 0.00 | 0.00 | 0.00 | 41 | 1015.4 |
| 20260503202322 | 30 | 277 | 4.8 | 9.7 | 0.00 | 0.00 | 0.00 | 42 | 1015.5 |
| 20260503201820 | 30 | 300 | 3.2 | 9.7 | 0.00 | 0.00 | 0.00 | 42 | 1015.7 |
| 20260503201316 | 28 | 245 | 0.0 | 12.9 | 0.00 | 0.00 | 0.00 | 42 | 1016.0 |
| 20260503200814 | 29 | 242 | 8.0 | 12.9 | 0.00 | 0.00 | 0.00 | 46 | 1016.1 |
| 20260503200309 | 28 | 292 | 9.7 | 14.5 | 0.00 | 0.00 | 0.00 | 44 | 1015.9 |
| 20260503195807 | 28 | 245 | 8.0 | 14.5 | 0.00 | 0.00 | 0.00 | 47 | 1016.3 |
| 20260503195304 | 30 | 313 | 4.8 | 8.0 | 0.00 | 0.00 | 0.00 | 47 | 1016.4 |
| 20260503194801 | 28 | 344 | 3.2 | 16.1 | 0.00 | 0.00 | 0.00 | 47 | 1016.6 |
| 20260503194256 | 28 | 307 | 4.8 | 16.1 | 0.00 | 0.00 | 0.00 | 52 | 1016.3 |
| 20260503193753 | 28 | 317 | 6.4 | 9.7 | 0.00 | 0.00 | 0.00 | 52 | 1016.4 |
| 20260503193249 | 27 | 344 | 8.0 | 14.5 | 0.00 | 0.00 | 0.00 | 52 | 1016.2 |
| 20260503192745 | 27 | 270 | 6.4 | 9.7 | 0.00 | 0.00 | 0.00 | 53 | 1016.2 |
| 20260503192240 | 27 | 287 | 3.2 | 9.7 | 0.00 | 0.00 | 0.00 | 54 | 1016.2 |
| 20260503191737 | 26 | 292 | 8.0 | 11.3 | 0.00 | 0.00 | 0.00 | 54 | 1016.3 |
| 20260503191234 | 27 | 283 | 3.2 | 9.7 | 0.00 | 0.00 | 0.00 | 53 | 1016.3 |
| 20260503190731 | 26 | 270 | 6.4 | 12.9 | 0.00 | 0.00 | 0.00 | 55 | 1016.3 |
| 20260503190228 | 26 | 261 | 3.2 | 9.7 | 0.00 | 0.00 | 0.00 | 56 | 1016.3 |
| 20260503185725 | 26 | 263 | 6.4 | 12.9 | 0.00 | 0.00 | 0.00 | 55 | 1016.3 |
| 20260503185220 | 26 | 254 | 4.8 | 9.7 | 0.00 | 0.00 | 0.00 | 55 | 1016.5 |
| 20260503184715 | 26 | 273 | 6.4 | 8.0 | 0.00 | 0.00 | 0.00 | 54 | 1016.7 |
| 20260503184212 | 26 | 279 | 6.4 | 8.0 | 0.00 | 0.00 | 0.00 | 57 | 1016.4 |
| 20260503183708 | 26 | 337 | 8.0 | 9.7 | 0.00 | 0.00 | 0.00 | 54 | 1016.4 |
| 20260503183206 | 25 | 264 | 3.2 | 9.7 | 0.00 | 0.00 | 0.00 | 55 | 1016.8 |
| 20260503182704 | 26 | 24 | 0.0 | 11.3 | 0.00 | 0.00 | 0.00 | 54 | 1016.7 |
| 20260503182202 | 26 | 303 | 3.2 | 8.0 | 0.00 | 0.00 | 0.00 | 53 | 1016.7 |
| 20260503181658 | 24 | 310 | 4.8 | 9.7 | 0.00 | 0.00 | 0.00 | 57 | 1016.7 |
| 20260503181155 | 25 | 45 | 4.8 | 9.7 | 0.00 | 0.00 | 0.00 | 57 | 1016.7 |
| 20260503180652 | 25 | 261 | 4.8 | 8.0 | 0.00 | 0.00 | 0.00 | 58 | 1016.9 |
| 20260503180150 | 25 | 255 | 6.4 | 6.4 | 0.00 | 0.00 | 0.00 | 58 | 1016.8 |
| 20260503175647 | 24 | 278 | 0.0 | 6.4 | 0.00 | 0.00 | 0.00 | 57 | 1016.8 |
| 20260503175144 | 24 | 74 | 3.2 | 6.4 | 0.00 | 0.00 | 0.00 | 57 | 1016.8 |
| 20260503174640 | 22 | 307 | 3.2 | 9.7 | 0.00 | 0.00 | 0.00 | 59 | 1016.8 |
| 20260503174138 | 22 | 339 | 3.2 | 11.3 | 0.00 | 0.00 | 0.00 | 59 | 1016.8 |
| 20260503173632 | 22 | 8 | 0.0 | 8.0 | 0.00 | 0.00 | 0.00 | 60 | 1017.0 |
| 20260503173129 | 23 | 10 | 4.8 | 4.8 | 0.00 | 0.00 | 0.00 | 59 | 1017.0 |
| 20260503172626 | 22 | 192 | 0.0 | 6.4 | 0.00 | 0.00 | 0.00 | 60 | 1017.0 |
| 20260503172124 | 22 | 270 | 1.6 | 4.8 | 0.00 | 0.00 | 0.00 | 61 | 1017.1 |
| 20260503171620 | 22 | 256 | 6.4 | 6.4 | 0.00 | 0.00 | 0.00 | 62 | 1017.1 |
| 20260503171117 | 21 | 270 | 4.8 | 6.4 | 0.00 | 0.00 | 0.00 | 63 | 1016.9 |
| 20260503170615 | 21 | 315 | 4.8 | 9.7 | 0.00 | 0.00 | 0.00 | 63 | 1017.1 |
| 20260503170111 | 21 | 180 | 1.6 | 8.0 | 0.00 | 0.00 | 0.00 | 64 | 1017.1 |
| 20260503151006 | 16 | 107 | 6.4 | 6.4 | 0.00 | 0.00 | 0.00 | 82 | 1017.4 |
| 20260503150503 | 16 | 98 | 1.6 | 3.2 | 0.00 | 0.00 | 0.00 | 84 | 1017.3 |
| 20260503131356 | 10 | 66 | 3.2 | 4.8 | 0.00 | 0.00 | 0.00 | 99 | 1017.0 |
| 20260503130853 | 10 | 66 | 3.2 | 6.4 | 0.00 | 0.00 | 0.00 | 99 | 1016.5 |
| 20260503130350 | 10 | 105 | 4.8 | 4.8 | 0.00 | 0.00 | 0.00 | 99 | 1016.8 |
| 20260503110744 | 11 | 26 | 4.8 | 6.4 | 0.00 | 0.00 | 0.00 | 99 | 1017.2 |
| 20260503110241 | 11 | 60 | 3.2 | 4.8 | 0.00 | 0.00 | 0.00 | 99 | 1017.3 |
| 20260503100207 | 12 | 29 | 3.2 | 3.2 | 0.00 | 0.00 | 0.00 | 98 | 1017.0 |
| 20260503090132 | 12 | 74 | 0.0 | 0.0 | 0.00 | 0.00 | 0.00 | 96 | 1017.5 |
| 20260503081602 | 13 | 105 | 3.2 | 4.8 | 0.00 | 0.00 | 0.00 | 93 | 1017.6 |
| 20260503081059 | 13 | 63 | 1.6 | 4.8 | 0.00 | 0.00 | 0.00 | 93 | 1017.8 |
| 20260503080555 | 13 | 29 | 0.0 | 4.8 | 0.00 | 0.00 | 0.00 | 92 | 1017.4 |
| 20260503072529 | 15 | 82 | 1.6 | 3.2 | 0.00 | 0.00 | 0.00 | 89 | 1017.4 |
| 20260503072026 | 15 | 125 | 4.8 | 9.7 | 0.00 | 0.00 | 0.00 | 87 | 1017.4 |
| 20260503071523 | 15 | 90 | 4.8 | 4.8 | 0.00 | 0.00 | 0.00 | 87 | 1017.3 |
| 20260503071020 | 15 | 66 | 4.8 | 4.8 | 0.00 | 0.00 | 0.00 | 87 | 1017.3 |
| 20260503070516 | 15 | 29 | 0.0 | 3.2 | 0.00 | 0.00 | 0.00 | 87 | 1017.3 |
| 20260503054940 | 16 | 29 | 0.0 | 4.8 | 0.00 | 0.03 | 0.03 | 83 | 1017.8 |
| 20260503054436 | 16 | 23 | 0.0 | 1.6 | 0.00 | 0.03 | 0.03 | 84 | 1017.8 |
| 20260503053934 | 16 | 16 | 0.0 | 0.0 | 0.00 | 0.03 | 0.03 | 83 | 1018.0 |
| 20260503053431 | 17 | 32 | 3.2 | 4.8 | 0.00 | 0.03 | 0.03 | 82 | 1018.1 |
| 20260503052927 | 16 | 15 | 4.8 | 6.4 | 0.00 | 0.03 | 0.03 | 83 | 1018.2 |
| 20260503052425 | 16 | 32 | 0.0 | 0.0 | 0.00 | 0.03 | 0.03 | 82 | 1018.2 |
| 20260503051921 | 17 | 32 | 0.0 | 0.0 | 0.00 | 0.03 | 0.03 | 82 | 1018.2 |
| 20260503051417 | 17 | 32 | 0.0 | 0.0 | 0.00 | 0.03 | 0.03 | 81 | 1018.1 |
| 20260503050915 | 17 | 32 | 0.0 | 0.0 | 0.00 | 0.03 | 0.03 | 81 | 1018.3 |
| 20260503050410 | 17 | 32 | 0.0 | 0.0 | 0.00 | 0.03 | 0.03 | 80 | 1018.1 |
| 20260503045908 | 17 | 32 | 0.0 | 3.2 | 0.00 | 0.03 | 0.03 | 79 | 1018.0 |
| 20260503045406 | 17 | 28 | 3.2 | 4.8 | 0.00 | 0.03 | 0.03 | 78 | 1018.3 |
| 20260503044902 | 17 | 67 | 4.8 | 4.8 | 0.00 | 0.03 | 0.03 | 78 | 1018.1 |
| 20260503044359 | 17 | 60 | 4.8 | 6.4 | 0.00 | 0.03 | 0.03 | 77 | 1018.2 |
| 20260503043856 | 17 | 57 | 3.2 | 4.8 | 0.00 | 0.03 | 0.03 | 77 | 1018.1 |
| 20260503043353 | 17 | 59 | 3.2 | 4.8 | 0.00 | 0.03 | 0.03 | 77 | 1018.1 |
| 20260503042849 | 17 | 90 | 3.2 | 3.2 | 0.00 | 0.03 | 0.03 | 77 | 1018.1 |
| 20260503042346 | 17 | 125 | 3.2 | 4.8 | 0.00 | 0.03 | 0.03 | 76 | 1018.0 |
| 20260503041842 | 18 | 111 | 1.6 | 4.8 | 0.00 | 0.03 | 0.03 | 76 | 1018.3 |
| 20260503041339 | 18 | 101 | 3.2 | 4.8 | 0.00 | 0.03 | 0.03 | 76 | 1018.1 |
| 20260503040837 | 18 | 128 | 3.2 | 4.8 | 0.00 | 0.03 | 0.03 | 75 | 1018.0 |
| 20260503040335 | 18 | 82 | 0.0 | 4.8 | 0.00 | 0.03 | 0.03 | 74 | 1018.2 |
| 20260503035831 | 18 | 100 | 3.2 | 4.8 | 0.00 | 0.03 | 0.03 | 75 | 1018.0 |
| 20260503035328 | 18 | 128 | 4.8 | 8.0 | 0.00 | 0.03 | 0.03 | 74 | 1018.0 |
| 20260503034826 | 18 | 90 | 4.8 | 19.3 | 0.00 | 0.03 | 0.03 | 74 | 1017.8 |
| 20260503034323 | 18 | 82 | 4.8 | 6.4 | 0.00 | 0.03 | 0.03 | 74 | 1018.0 |
| 20260503033820 | 19 | 94 | 4.8 | 12.9 | 0.00 | 0.03 | 0.03 | 73 | 1017.6 |
| 20260503033317 | 20 | 150 | 9.7 | 9.7 | 0.00 | 0.03 | 0.03 | 71 | 1017.7 |
| 20260503032815 | 20 | 164 | 11.3 | 12.9 | 0.00 | 0.03 | 0.03 | 70 | 1017.6 |
| 20260503032314 | 20 | 112 | 9.7 | 9.7 | 0.00 | 0.03 | 0.03 | 69 | 1017.1 |
| 20260503031811 | 20 | 180 | 3.2 | 14.5 | 0.00 | 0.03 | 0.03 | 68 | 1016.7 |
| 20260503031309 | 21 | 108 | 6.4 | 24.1 | 0.00 | 0.03 | 0.03 | 66 | 1016.3 |
| 20260503030805 | 21 | 159 | 27.4 | 27.4 | 0.00 | 0.03 | 0.03 | 66 | 1016.4 |
| 20260503030301 | 21 | 100 | 0.0 | 12.9 | 0.00 | 0.03 | 0.03 | 65 | 1016.6 |
| 20260503025758 | 21 | 131 | 9.7 | 9.7 | 0.00 | 0.03 | 0.03 | 65 | 1016.2 |
| 20260503025256 | 22 | 202 | 8.0 | 17.7 | 0.00 | 0.03 | 0.03 | 64 | 1015.9 |
| 20260503024752 | 22 | 265 | 0.0 | 14.5 | 0.00 | 0.03 | 0.03 | 64 | 1016.0 |
| 20260503024249 | 23 | 203 | 8.0 | 24.1 | 0.00 | 0.03 | 0.03 | 60 | 1015.9 |
| 20260503023746 | 23 | 169 | 0.0 | 4.8 | 0.00 | 0.03 | 0.03 | 58 | 1015.7 |
| 20260503023243 | 23 | 198 | 0.0 | 6.4 | 0.00 | 0.03 | 0.03 | 58 | 1015.7 |
| 20260503022739 | 24 | 221 | 0.0 | 3.2 | 0.00 | 0.03 | 0.03 | 58 | 1015.3 |
| 20260503022234 | 24 | 249 | 0.0 | 4.8 | 0.00 | 0.03 | 0.03 | 57 | 1015.2 |
| 20260503021731 | 25 | 279 | 0.0 | 4.8 | 0.00 | 0.03 | 0.03 | 55 | 1015.5 |
| 20260503021227 | 25 | 285 | 0.0 | 4.8 | 0.00 | 0.03 | 0.03 | 54 | 1015.7 |
| 20260503020725 | 25 | 305 | 0.0 | 6.4 | 0.00 | 0.03 | 0.03 | 54 | 1015.8 |
| 20260503020222 | 26 | 352 | 3.2 | 4.8 | 0.00 | 0.03 | 0.03 | 53 | 1016.3 |
| 20260503015719 | 25 | 265 | 3.2 | 6.4 | 0.00 | 0.03 | 0.03 | 55 | 1016.2 |
| 20260503015216 | 25 | 270 | 3.2 | 6.4 | 0.00 | 0.03 | 0.03 | 54 | 1016.4 |
| 20260503014711 | 26 | 291 | 1.6 | 6.4 | 0.00 | 0.03 | 0.03 | 53 | 1016.2 |
| 20260503014210 | 25 | 270 | 3.2 | 6.4 | 0.00 | 0.03 | 0.03 | 54 | 1016.3 |
| 20260503013706 | 25 | 0 | 1.6 | 11.3 | 0.00 | 0.03 | 0.03 | 55 | 1016.6 |
| 20260503013204 | 26 | 29 | 0.0 | 3.2 | 0.00 | 0.03 | 0.03 | 53 | 1016.5 |
| 20260503012702 | 26 | 29 | 1.6 | 4.8 | 0.00 | 0.03 | 0.03 | 53 | 1016.7 |
| 20260503012158 | 26 | 24 | 3.2 | 8.0 | 0.00 | 0.03 | 0.03 | 52 | 1016.6 |
| 20260503011654 | 26 | 237 | 3.2 | 3.2 | 0.00 | 0.03 | 0.03 | 53 | 1016.6 |
| 20260503011152 | 25 | 228 | 6.4 | 6.4 | 0.00 | 0.03 | 0.03 | 55 | 1016.2 |
| 20260503010648 | 25 | 225 | 4.8 | 8.0 | 0.00 | 0.03 | 0.03 | 54 | 1016.7 |
| 20260503010145 | 25 | 325 | 1.6 | 8.0 | 0.00 | 0.03 | 0.03 | 55 | 1016.6 |
| 20260503005642 | 25 | 307 | 3.2 | 6.4 | 0.00 | 0.03 | 0.03 | 56 | 1016.7 |
| 20260503005139 | 24 | 246 | 0.0 | 8.0 | 0.00 | 0.03 | 0.03 | 56 | 1016.6 |
| 20260503004635 | 25 | 289 | 1.6 | 6.4 | 0.00 | 0.03 | 0.03 | 57 | 1016.4 |
| 20260503004134 | 25 | 234 | 4.8 | 6.4 | 0.00 | 0.03 | 0.03 | 54 | 1016.6 |
| 20260503003631 | 25 | 13 | 4.8 | 6.4 | 0.00 | 0.03 | 0.03 | 55 | 1016.7 |
| 20260503003128 | 25 | 330 | 4.8 | 6.4 | 0.00 | 0.03 | 0.03 | 56 | 1016.7 |
| 20260503002625 | 24 | 240 | 4.8 | 8.0 | 0.00 | 0.03 | 0.03 | 58 | 1016.6 |
| 20260503002121 | 25 | 275 | 3.2 | 6.4 | 0.00 | 0.03 | 0.03 | 56 | 1016.5 |
| 20260503001617 | 24 | 236 | 4.8 | 9.7 | 0.00 | 0.03 | 0.03 | 57 | 1016.6 |
| 20260503001115 | 24 | 74 | 1.6 | 4.8 | 0.00 | 0.03 | 0.03 | 58 | 1016.7 |
| 20260503000612 | 25 | 300 | 1.6 | 12.9 | 0.00 | 0.03 | 0.03 | 57 | 1016.8 |
| 20260503000109 | 24 | 352 | 0.0 | 8.0 | 0.00 | 0.03 | 0.03 | 58 | 1016.9 |
| 20260502235606 | 25 | 0 | 3.2 | 6.4 | 0.00 | 0.03 | 0.03 | 56 | 1017.1 |
| 20260502235104 | 24 | 244 | 4.8 | 6.4 | 0.00 | 0.03 | 0.03 | 57 | 1017.0 |
| 20260502234559 | 23 | 236 | 4.8 | 6.4 | 0.00 | 0.03 | 0.03 | 59 | 1017.1 |
| 20260502234057 | 23 | 297 | 0.0 | 8.0 | 0.00 | 0.03 | 0.03 | 60 | 1017.4 |
| 20260502233557 | 23 | 304 | 4.8 | 9.7 | 0.00 | 0.03 | 0.03 | 58 | 1017.3 |
| 20260502233055 | 23 | 310 | 4.8 | 9.7 | 0.00 | 0.03 | 0.03 | 59 | 1017.5 |
| 20260502232551 | 23 | 251 | 12.9 | 12.9 | 0.00 | 0.03 | 0.03 | 59 | 1017.5 |
| 20260502232048 | 23 | 256 | 11.3 | 16.1 | 0.00 | 0.03 | 0.03 | 58 | 1017.5 |
| 20260502231545 | 23 | 235 | 4.8 | 11.3 | 0.00 | 0.03 | 0.03 | 59 | 1017.7 |
| 20260502231043 | 22 | 111 | 8.0 | 11.3 | 0.00 | 0.03 | 0.03 | 60 | 1017.6 |
| 20260502230541 | 22 | 346 | 3.2 | 11.3 | 0.00 | 0.03 | 0.03 | 61 | 1018.0 |
| 20260502230039 | 22 | 353 | 8.0 | 11.3 | 0.00 | 0.03 | 0.03 | 62 | 1018.0 |
| 20260502225534 | 22 | 0 | 0.0 | 4.8 | 0.00 | 0.03 | 0.03 | 61 | 1018.0 |
| 20260502225032 | 21 | 327 | 6.4 | 16.1 | 0.00 | 0.03 | 0.03 | 64 | 1018.2 |
| 20260502224528 | 22 | 266 | 4.8 | 6.4 | 0.00 | 0.03 | 0.03 | 61 | 1018.4 |
| 20260502224025 | 21 | 301 | 11.3 | 14.5 | 0.00 | 0.03 | 0.03 | 64 | 1018.4 |